QFA45 YMML-YMLT

Flight info

Callsign QFA45
Flight time 0h 49m
Altitude 33000
Route DCT ML H169 IRSOM W105 LT DCT
Aircraft B737/M-V/N

Departure

Time 2026-04-23 08:30
Airport Melbourne Airport (YMML)

Arrival

Time 2026-04-23 09:19
Airport Launceston Airport (YMLT)
Time Latitude Longitude Altitude Speed Heading
2026-04-23 08:14 -37.66816 144.84337 369 ft 0 kts 82°
2026-04-23 08:23 -37.66816 144.84336 370 ft 1 kts 82°
2026-04-23 08:23 -37.66818 144.84317 371 ft 3 kts 79°
2026-04-23 08:23 -37.66821 144.84299 371 ft 3 kts 75°
2026-04-23 08:23 -37.66827 144.84274 372 ft 3 kts 70°
2026-04-23 08:24 -37.66834 144.84250 373 ft 3 kts 62°
2026-04-23 08:24 -37.66844 144.84229 374 ft 3 kts 50°
2026-04-23 08:24 -37.66858 144.84212 375 ft 3 kts 24°
2026-04-23 08:24 -37.66872 144.84207 375 ft 1 kts 352°
2026-04-23 08:25 -37.66873 144.84207 375 ft 0 kts 351°
2026-04-23 08:26 -37.66863 144.84205 375 ft 6 kts 351°
2026-04-23 08:26 -37.66784 144.84190 376 ft 17 kts 351°
2026-04-23 08:27 -37.66630 144.84163 377 ft 28 kts 352°
2026-04-23 08:27 -37.66405 144.84122 374 ft 38 kts 351°
2026-04-23 08:27 -37.66134 144.84069 378 ft 40 kts 352°
2026-04-23 08:27 -37.65856 144.84018 393 ft 40 kts 352°
2026-04-23 08:28 -37.65624 144.83969 408 ft 24 kts 336°
2026-04-23 08:28 -37.65569 144.83798 418 ft 20 kts 267°
2026-04-23 08:28 -37.65582 144.83674 415 ft 17 kts 261°
2026-04-23 08:28 -37.65670 144.83564 411 ft 22 kts 190°
2026-04-23 08:29 -37.65725 144.83567 409 ft 0 kts 172°
2026-04-23 08:29 -37.65754 144.83573 408 ft 17 kts 171°
2026-04-23 08:29 -37.66095 144.83638 401 ft 88 kts 171°
2026-04-23 08:29 -37.66941 144.83796 385 ft 154 kts 171°
2026-04-23 08:30 -37.68065 144.84012 786 ft 163 kts 169°
2026-04-23 08:30 -37.69185 144.84236 1291 ft 166 kts 169°
2026-04-23 08:30 -37.70304 144.84454 1728 ft 164 kts 170°
2026-04-23 08:30 -37.71545 144.84665 1773 ft 195 kts 171°
2026-04-23 08:31 -37.72966 144.84910 1870 ft 207 kts 170°
2026-04-23 08:31 -37.74369 144.85169 2251 ft 208 kts 169°
2026-04-23 08:31 -37.75796 144.85438 2616 ft 208 kts 170°
2026-04-23 08:31 -37.77237 144.85709 2991 ft 211 kts 170°
2026-04-23 08:32 -37.78690 144.85979 3364 ft 213 kts 170°
2026-04-23 08:32 -37.80154 144.86251 3734 ft 213 kts 170°
2026-04-23 08:32 -37.81625 144.86525 4092 ft 213 kts 169°
2026-04-23 08:32 -37.83097 144.86800 4461 ft 213 kts 170°
2026-04-23 08:33 -37.84552 144.87183 4831 ft 213 kts 156°
2026-04-23 08:33 -37.85499 144.87684 5095 ft 214 kts 155°
2026-04-23 08:33 -37.86882 144.88398 5455 ft 215 kts 156°
2026-04-23 08:33 -37.88272 144.89097 5826 ft 215 kts 156°
2026-04-23 08:34 -37.89664 144.89806 6194 ft 216 kts 156°
2026-04-23 08:34 -37.91059 144.90521 6566 ft 217 kts 155°
2026-04-23 08:34 -37.92458 144.91238 6931 ft 217 kts 155°
2026-04-23 08:34 -37.93865 144.91958 7292 ft 219 kts 156°
2026-04-23 08:35 -37.95283 144.92685 7655 ft 220 kts 156°
2026-04-23 08:35 -37.96708 144.93415 8019 ft 222 kts 156°
2026-04-23 08:35 -37.98147 144.94153 8397 ft 224 kts 156°
2026-04-23 08:35 -37.99599 144.94897 8770 ft 225 kts 156°
2026-04-23 08:36 -38.01057 144.95645 9148 ft 226 kts 157°
2026-04-23 08:36 -38.02495 144.96384 9614 ft 225 kts 157°
2026-04-23 08:36 -38.03993 144.97153 9700 ft 241 kts 156°
2026-04-23 08:36 -38.05572 144.98035 9760 ft 254 kts 152°
2026-04-23 08:37 -38.07211 144.98924 10039 ft 256 kts 159°
2026-04-23 08:37 -38.08902 144.99675 10315 ft 258 kts 159°
2026-04-23 08:37 -38.10581 145.00505 10573 ft 260 kts 157°
2026-04-23 08:37 -38.12251 145.01395 10820 ft 261 kts 157°
2026-04-23 08:38 -38.13935 145.02277 11069 ft 262 kts 158°
2026-04-23 08:38 -38.15630 145.03144 11324 ft 263 kts 158°
2026-04-23 08:38 -38.17330 145.04014 11566 ft 264 kts 158°
2026-04-23 08:38 -38.19043 145.04899 12097 ft 269 kts 158°
2026-04-23 08:39 -38.20792 145.05804 12689 ft 280 kts 158°
2026-04-23 08:39 -38.22649 145.06763 13260 ft 293 kts 158°
2026-04-23 08:39 -38.24566 145.07752 13984 ft 301 kts 158°
2026-04-23 08:39 -38.26528 145.08766 14701 ft 306 kts 158°
2026-04-23 08:40 -38.28492 145.09783 15405 ft 310 kts 158°
2026-04-23 08:40 -38.30502 145.10823 16119 ft 314 kts 158°
2026-04-23 08:40 -38.32542 145.11879 16827 ft 318 kts 158°
2026-04-23 08:40 -38.34600 145.12945 17544 ft 321 kts 159°
2026-04-23 08:41 -38.36683 145.14025 18193 ft 327 kts 159°
2026-04-23 08:41 -38.38829 145.15138 18654 ft 339 kts 159°
2026-04-23 08:41 -38.41062 145.16297 18964 ft 353 kts 159°
2026-04-23 08:41 -38.43390 145.17506 19215 ft 369 kts 159°
2026-04-23 08:42 -38.45811 145.18765 19562 ft 381 kts 159°
2026-04-23 08:42 -38.48292 145.20057 20032 ft 389 kts 159°
2026-04-23 08:42 -38.50790 145.21348 20551 ft 394 kts 160°
2026-04-23 08:42 -38.53404 145.22466 21101 ft 398 kts 162°
2026-04-23 08:43 -38.56038 145.23641 21666 ft 403 kts 161°
2026-04-23 08:43 -38.58692 145.24846 22239 ft 406 kts 161°
2026-04-23 08:43 -38.61377 145.26024 22809 ft 410 kts 162°
2026-04-23 08:43 -38.64090 145.27197 23395 ft 413 kts 162°
2026-04-23 08:44 -38.66826 145.28402 23965 ft 416 kts 161°
2026-04-23 08:44 -38.69576 145.29627 24408 ft 421 kts 161°
2026-04-23 08:44 -38.72331 145.30846 24708 ft 428 kts 162°
2026-04-23 08:44 -38.75184 145.32099 24916 ft 438 kts 162°
2026-04-23 08:45 -38.78095 145.33384 25174 ft 446 kts 162°
2026-04-23 08:45 -38.81039 145.34692 25599 ft 450 kts 162°
2026-04-23 08:45 -38.84004 145.36007 26080 ft 451 kts 162°
2026-04-23 08:45 -38.86975 145.37322 26604 ft 452 kts 162°
2026-04-23 08:46 -38.89945 145.38639 27142 ft 452 kts 162°
2026-04-23 08:46 -38.92913 145.39959 27692 ft 451 kts 162°
2026-04-23 08:46 -38.95874 145.41276 28253 ft 450 kts 162°
2026-04-23 08:46 -38.98835 145.42593 28839 ft 449 kts 162°
2026-04-23 08:47 -39.01788 145.43907 29410 ft 448 kts 162°
2026-04-23 08:47 -39.04730 145.45219 29989 ft 446 kts 162°
2026-04-23 08:47 -39.07664 145.46529 30523 ft 445 kts 162°
2026-04-23 08:47 -39.10545 145.47815 30992 ft 444 kts 162°
2026-04-23 08:48 -39.13465 145.49120 31467 ft 442 kts 162°
2026-04-23 08:48 -39.16368 145.50418 31940 ft 441 kts 162°
2026-04-23 08:48 -39.19257 145.51712 32414 ft 439 kts 163°
2026-04-23 08:48 -39.22138 145.53003 32876 ft 436 kts 163°
2026-04-23 08:49 -39.24985 145.54281 32978 ft 431 kts 163°
2026-04-23 08:49 -39.27811 145.55549 32986 ft 428 kts 163°
2026-04-23 08:49 -39.33424 145.58071 32986 ft 427 kts 163°
2026-04-23 08:50 -39.39044 145.60602 32990 ft 427 kts 163°
2026-04-23 08:50 -39.44623 145.63117 32989 ft 427 kts 163°
2026-04-23 08:51 -39.50243 145.65656 32991 ft 428 kts 163°
2026-04-23 08:51 -39.55864 145.68199 32993 ft 428 kts 163°
2026-04-23 08:52 -39.61496 145.70753 32993 ft 429 kts 163°
2026-04-23 08:52 -39.67112 145.73304 33003 ft 425 kts 163°
2026-04-23 08:53 -39.72670 145.75830 33006 ft 426 kts 163°
2026-04-23 08:53 -39.78264 145.78380 32999 ft 426 kts 163°
2026-04-23 08:54 -39.82949 145.80517 33000 ft 429 kts 163°
2026-04-23 08:54 -39.88558 145.83083 33005 ft 426 kts 163°
2026-04-23 08:55 -39.94159 145.85646 32997 ft 426 kts 163°
2026-04-23 08:55 -39.99757 145.88215 32997 ft 426 kts 163°
2026-04-23 08:56 -40.05344 145.90796 32803 ft 430 kts 163°
2026-04-23 08:56 -40.08158 145.92104 32296 ft 427 kts 162°
2026-04-23 08:56 -40.10947 145.93397 31672 ft 424 kts 162°
2026-04-23 08:57 -40.13712 145.94678 31068 ft 420 kts 162°
2026-04-23 08:57 -40.16460 145.95953 30463 ft 417 kts 162°
2026-04-23 08:57 -40.19189 145.97223 29789 ft 414 kts 162°
2026-04-23 08:57 -40.21889 145.98480 29270 ft 408 kts 162°
2026-04-23 08:58 -40.24544 145.99716 28724 ft 402 kts 162°
2026-04-23 08:58 -40.27169 146.00939 28176 ft 398 kts 162°
2026-04-23 08:58 -40.29766 146.02149 27620 ft 394 kts 162°
2026-04-23 08:58 -40.32348 146.03355 27078 ft 391 kts 162°
2026-04-23 08:59 -40.34904 146.04549 26540 ft 388 kts 162°
2026-04-23 08:59 -40.37434 146.05732 26019 ft 385 kts 162°
2026-04-23 08:59 -40.39950 146.06908 25490 ft 382 kts 162°
2026-04-23 08:59 -40.42450 146.08079 24980 ft 380 kts 162°
2026-04-23 09:00 -40.44912 146.09233 24482 ft 378 kts 161°
2026-04-23 09:00 -40.47382 146.10391 23976 ft 376 kts 161°
2026-04-23 09:00 -40.49843 146.11546 23401 ft 374 kts 161°
2026-04-23 09:00 -40.52286 146.12694 22833 ft 372 kts 161°
2026-04-23 09:01 -40.54719 146.13838 22281 ft 369 kts 161°
2026-04-23 09:01 -40.57130 146.14972 21745 ft 367 kts 161°
2026-04-23 09:01 -40.59495 146.16085 21234 ft 365 kts 161°
2026-04-23 09:01 -40.61880 146.17209 20716 ft 362 kts 161°
2026-04-23 09:02 -40.64250 146.18326 20209 ft 360 kts 161°
2026-04-23 09:02 -40.66602 146.19436 19720 ft 358 kts 161°
2026-04-23 09:02 -40.68942 146.20542 19233 ft 356 kts 162°
2026-04-23 09:02 -40.71272 146.21642 18750 ft 355 kts 162°
2026-04-23 09:03 -40.73587 146.22737 18210 ft 353 kts 161°
2026-04-23 09:03 -40.75897 146.23831 17685 ft 351 kts 161°
2026-04-23 09:03 -40.78162 146.24904 17174 ft 349 kts 161°
2026-04-23 09:03 -40.80439 146.25983 16668 ft 347 kts 161°
2026-04-23 09:04 -40.82699 146.27055 16242 ft 343 kts 161°
2026-04-23 09:04 -40.84929 146.28114 15870 ft 338 kts 161°
2026-04-23 09:04 -40.87128 146.29159 15469 ft 334 kts 161°
2026-04-23 09:04 -40.89305 146.30193 15066 ft 331 kts 161°
2026-04-23 09:05 -40.91453 146.31216 14738 ft 323 kts 161°
2026-04-23 09:05 -40.93538 146.32209 14443 ft 315 kts 161°
2026-04-23 09:05 -40.95585 146.33183 14061 ft 310 kts 161°
2026-04-23 09:05 -40.97583 146.34136 13641 ft 307 kts 162°
2026-04-23 09:06 -40.99583 146.35090 13204 ft 304 kts 162°
2026-04-23 09:06 -41.01567 146.36037 12768 ft 302 kts 162°
2026-04-23 09:06 -41.03540 146.36979 12335 ft 300 kts 162°
2026-04-23 09:06 -41.05497 146.37914 11971 ft 297 kts 162°
2026-04-23 09:07 -41.07427 146.38838 11592 ft 294 kts 163°
2026-04-23 09:07 -41.09349 146.39757 11229 ft 291 kts 163°
2026-04-23 09:07 -41.11246 146.40665 10865 ft 289 kts 163°
2026-04-23 09:07 -41.13136 146.41570 10503 ft 287 kts 163°
2026-04-23 09:08 -41.15006 146.42468 10131 ft 285 kts 162°
2026-04-23 09:08 -41.16728 146.43770 9759 ft 289 kts 139°
2026-04-23 09:08 -41.17901 146.45924 9391 ft 290 kts 118°
2026-04-23 09:08 -41.18750 146.48294 9062 ft 280 kts 115°
2026-04-23 09:09 -41.19551 146.50664 8735 ft 283 kts 115°
2026-04-23 09:09 -41.20378 146.53045 8397 ft 284 kts 116°
2026-04-23 09:09 -41.21221 146.55415 8039 ft 284 kts 116°
2026-04-23 09:09 -41.22058 146.57785 7689 ft 283 kts 115°
2026-04-23 09:10 -41.22888 146.60159 7337 ft 283 kts 115°
2026-04-23 09:10 -41.24547 146.64898 6619 ft 282 kts 115°
2026-04-23 09:10 -41.25371 146.67250 6308 ft 281 kts 114°
2026-04-23 09:11 -41.26193 146.69601 6016 ft 279 kts 114°
2026-04-23 09:11 -41.27008 146.71936 5718 ft 277 kts 114°
2026-04-23 09:11 -41.27809 146.74232 5425 ft 276 kts 114°
2026-04-23 09:11 -41.28623 146.76563 5199 ft 282 kts 114°
2026-04-23 09:12 -41.29448 146.78941 4986 ft 282 kts 114°
2026-04-23 09:12 -41.30278 146.81320 4768 ft 281 kts 114°
2026-04-23 09:12 -41.31090 146.83645 4562 ft 279 kts 114°
2026-04-23 09:12 -41.31903 146.85985 4344 ft 277 kts 114°
2026-04-23 09:13 -41.32705 146.88299 4122 ft 270 kts 114°
2026-04-23 09:13 -41.33478 146.90523 3883 ft 264 kts 113°
2026-04-23 09:13 -41.34226 146.92681 3653 ft 246 kts 113°
2026-04-23 09:13 -41.34912 146.94652 3391 ft 224 kts 112°
2026-04-23 09:14 -41.35545 146.96480 3136 ft 217 kts 112°
2026-04-23 09:14 -41.36162 146.98271 3015 ft 209 kts 111°
2026-04-23 09:14 -41.36779 147.00062 3014 ft 210 kts 112°
2026-04-23 09:14 -41.37396 147.01847 2998 ft 207 kts 112°
2026-04-23 09:15 -41.37981 147.03534 3025 ft 202 kts 111°
2026-04-23 09:15 -41.38553 147.05195 3027 ft 202 kts 111°
2026-04-23 09:15 -41.39133 147.06877 3026 ft 202 kts 111°
2026-04-23 09:15 -41.39819 147.08486 2994 ft 204 kts 133°
2026-04-23 09:16 -41.40978 147.09583 3020 ft 205 kts 148°
2026-04-23 09:16 -41.42172 147.10575 3021 ft 204 kts 148°
2026-04-23 09:16 -41.43385 147.11590 3015 ft 207 kts 147°
2026-04-23 09:16 -41.44574 147.12568 2925 ft 188 kts 150°
2026-04-23 09:17 -41.45623 147.13476 2596 ft 173 kts 146°
2026-04-23 09:17 -41.46583 147.14333 2340 ft 160 kts 147°
2026-04-23 09:17 -41.47508 147.15126 2105 ft 156 kts 145°
2026-04-23 09:17 -41.48419 147.15910 2000 ft 156 kts 144°
2026-04-23 09:18 -41.49339 147.16728 1830 ft 163 kts 145°
2026-04-23 09:18 -41.50295 147.17534 1586 ft 161 kts 147°
2026-04-23 09:18 -41.51225 147.18305 1332 ft 154 kts 147°
2026-04-23 09:18 -41.52109 147.19091 1099 ft 152 kts 149°
2026-04-23 09:19 -41.53007 147.19827 840 ft 150 kts 148°
2026-04-23 09:19 -41.53854 147.20547 592 ft 136 kts 148°
2026-04-23 09:19 -41.54514 147.21100 568 ft 83 kts 146°
2026-04-23 09:19 -41.54839 147.21383 557 ft 38 kts 147°
2026-04-23 09:20 -41.55032 147.21548 557 ft 29 kts 147°
2026-04-23 09:20 -41.55169 147.21652 561 ft 16 kts 172°
2026-04-23 09:20 -41.55226 147.21593 551 ft 9 kts 263°
2026-04-23 09:20 -41.55217 147.21524 555 ft 8 kts 299°
2026-04-23 09:21 -41.55164 147.21465 557 ft 12 kts 325°
2026-04-23 09:21 -41.55074 147.21389 557 ft 19 kts 328°
2026-04-23 09:21 -41.54940 147.21275 558 ft 26 kts 327°
2026-04-23 09:21 -41.54774 147.21135 561 ft 30 kts 328°
2026-04-23 09:22 -41.54591 147.20978 567 ft 31 kts 327°
2026-04-23 09:22 -41.54448 147.20855 562 ft 15 kts 327°
2026-04-23 09:22 -41.54382 147.20798 563 ft 7 kts 327°
2026-04-23 09:22 -41.54357 147.20778 563 ft 2 kts 330°
2026-04-23 09:23 -41.54347 147.20768 567 ft 4 kts 316°
2026-04-23 09:23 -41.54330 147.20725 566 ft 6 kts 299°
2026-04-23 09:23 -41.54308 147.20663 564 ft 6 kts 292°
2026-04-23 09:23 -41.54305 147.20653 563 ft 0 kts 292°
2026-04-23 09:24 -41.54290 147.20679 564 ft 0 kts 348°